Погода в Верхе-Убе

Казахстан     50°28′34″N   82°24′55″E
темп.,
°C
ветер,
м/с
пор.,
м/с
влажн.,
%
обл.,
%
осадки,
мм/ч
давл.,
гПа
погр.,
м
2 марта, вт
вт200:00−5ююв41497100 6.8 1019805
03:00−5ю31297100 3.6 1019712
06:00−5ююв31297100 5.0 1020600
09:00−4ю41195100 0.8 1020565
12:00−3ю4995100 1.5 1019614
15:00−2ю4895100 1.3 1017611
18:00−2ююв3797100 2.1 1016366
21:00−3ююв2698100 2.4 1016340
3 марта, ср
ср300:00−3ююв31197100 5.3 1016737
03:00−3зюз3697100 2.8 1017382
06:00−8зюз1297100 2.9 102021
09:00−7юз2396100 0.6 1021180
12:00−7юз5693100 1.2 1022512
15:00−9юз3591100 0.3 1023542
18:00−11ю2296100 0.4 102622
21:00−14юв229095 0.0 102820
4 марта, чт
чт400:00−15юв229361 0.0 102920
03:00−16вюв229442 0.0 102920
06:00−16вюв229143 0.0 103020
09:00−13вюв228958 0.0 103073
12:00−7ююв377968 0.0 1029379
15:00−5ю3107767 0.0 1027556
18:00−9ю237660 0.0 102721
21:00−12юв227133 0.0 102721
5 марта, пт
пт500:00−14вюв227240 0.0 102621
03:00−13в237186 0.0 102323
06:00−10вюв117893 0.0 102122
09:00−7в1580100 0.4 1019231
12:00−5ююз1395100 5.6 1021280
15:00−3юз5896100 2.9 1025625
18:00−4зюз6993100 3.6 1030499
21:00−10ююв339342 0.0 103321
6 марта, сб
сб600:00−11юв229350 0.0 103421
03:00−11юв238999 0.0 103221
06:00−13юв228983 0.0 103221
09:00−10юв24900 0.0 1031111
12:00−3ю511805 0.0 1028690
15:00−1ю5108064 0.0 1026655
18:00−5ю237950 0.0 102522
21:00−10ю11733 0.0 102621